Location: C�an Torras
(41.5052°N, 1.9280°E)
Time: 19:10:42
(UTC+00:00)

USA 267 - Pass Details

Date: 20 January 2021
Orbit: 1099 x 1108 km, 123.0° (Epoch: 03 March)

Event Time Altitude Azimuth Distance (km) Brightness Sun altitude
Exits shadow 18:04:18 17° 79° (E) 2,459 4.4 -13.2°
Maximum altitude 18:08:02 29° 125° (SE) 1,913 4.2 -13.9°
Drops below altitude 10° 18:13:31 10° 183° (S) 2,951 5.7 -14.9°
Sets 18:16:23 0° 194° (SSW) 3,907 6.5 -15.4°
